AirNav   Air Wisconsin pilot careers
 
 616 users online  

PN35 Flying R Airport
Harrisonville, Pennsylvania, USA

GOING TO HARRISONVILLE?


FAA INFORMATION EFFECTIVE 24 MAY 2018

Location

FAA Identifier: PN35
Lat/Long: 40-00-00.3090N / 078-04-59.0190W
40-00.005150N / 078-04.983650W
40.0000858 / -78.0830608
(estimated)
Elevation: 960 ft. / 293 m (estimated)
Variation: 09W (1985)
From city: 2 miles S of HARRISONVILLE, PA
Time zone: UTC -4 (UTC -5 during Standard Time)
Zip code: 17228

Airport Operations

Airport use: Private use. Permission required prior to landing
Activation date: 01/1974
Control tower: no
ARTCC: CLEVELAND CENTER
FSS: WILLIAMSPORT FLIGHT SERVICE STATION
Attendance: UNATNDD
Wind indicator: yes
Segmented circle: no

Nearby radio navigation aids

VOR radial/distance  VOR name  Freq  Var
THSr310/7.3ST THOMAS VORTAC115.0007W
HGRr337/(20.9)HAGERSTOWN VOR109.8007W
MRBr351/38.4MARTINSBURG VORTAC112.1007W
JSTr125/39.3JOHNSTOWN VOR/DME113.0006W

 
NDB name  Hdg/Dist  Freq  Var  ID
CUMBERLAND065/37.231710WCBE -.-. -... .
STOYSTOWN108/38.620910WSYS ... -.-- ...

Airport Services

Runway Information

Runway 5/23

Dimensions: 1600 x 50 ft. / 488 x 15 m
Surface: turf
RUNWAY 5  RUNWAY 23
Traffic pattern: leftleft
Obstructions: none68 ft. tree, 77 ft. from runway

Airport Ownership and Management from official FAA records

Ownership: Privately-owned
Owner: KENNETH V. ROUZER
1171 POSSUM HOLLOW RD
HARRISONVILLE, PA 17228
Phone 717-485-3788
Manager: KENNETH V. ROUZER
1171 POSSUM HOLLOW RD
HARRISONVILLE, PA 17228
Phone 717-485-3788

Airport Operational Statistics

Aircraft based on the field: 1
Single engine airplanes: 1
    

Additional Remarks

RUNWAY 50-100 FT WIDE WITH SLIGHT DOG LEG.

Instrument Procedures

There are no published instrument procedures at PN35.

Some nearby airports with instrument procedures:

W35 - Potomac Airpark (19 nm S)
N68 - Franklin County Regional Airport (20 nm E)
KHMZ - Bedford County Airport (20 nm W)
KAOO - Altoona-Blair County Airport (21 nm NW)
KHGR - Hagerstown Regional Airport-Richard A Henson Field (24 nm SE)
 
Loc | Ops | Rwys | IFR | FBO | Links
Com | Nav | Svcs | Stats | Notes

AirNav Hotels Sweepstakes
 
Area around PN35 (Flying R Airport)
 
Road maps at: MapQuest Bing Google
 
Aerial photo
No photo
 
Sectional chart

 
Airport distance calculator
Flying to Flying R Airport? Find the distance to fly.

From to PN35

Sunrise and sunset
Times for 28-May-2018
 Local
(UTC-4)
 Zulu
(UTC)
Morning civil twilight05:1709:17
Sunrise05:4809:48
Sunset20:3100:31
Evening civil twilight21:0301:03

Current date and time
Zulu (UTC)  28-May-2018 04:18:58
Local (UTC-4)  28-May-2018 00:18:58
 
METAR
KHMZ 
20nm W 
280355Z AUTO 00000KT 10SM SCT015 OVC023 20/20 A3002 RMK AO2 T02030198
KAOO 
21nm NW 
280353Z AUTO 12007KT 8SM BKN009 22/19 A3005 RMK AO2 CIG 007V011 SLP167 T02170194
KHGR 
24nm SE 
280353Z AUTO 08005KT 10SM OVC019 23/21 A3003 RMK AO2 SLP173 T02280206
KMRB 
36nm S 
280353Z AUTO 09005KT 10SM FEW013 OVC020 22/21 A3002 RMK AO2 SLP160 T02170206 $
KCBE 
39nm SW 
280356Z AUTO 00000KT 4SM SCT004 OVC008 22/22 A3006 RMK AO1
KJST 
39nm NW 
280403Z AUTO 14004KT 8SM BKN027 BKN035 20/19 A3006 RMK AO2 T02000189
TAF
KAOO 
21nm NW 
280138Z 2802/2824 VRB03KT P6SM SCT025 FM280230 11003KT P6SM BKN025 FM280300 11003KT 6SM BR OVC015 FM280500 11002KT 4SM BR OVC007 FM281430 VRB02KT P6SM BKN015 FM281730 16003KT P6SM SCT045
NOTAMs
Click for the latest NOTAMs
NOTAMs are issued by the DoD/FAA and will open in a separate window not controlled by AirNav.

 

 
 

Would you like to see your business listed on this page?

 If your business provides an interesting product or service to pilots, flight crews, aircraft, or users of the Flying R Airport, you should consider listing it here.  To start the listing process, click on the button below
 
Add a business
 

Other Pages about Flying R Airport

Update a link
 
Copyright © AirNav, LLC. All rights reserved. Privacy Policy  Contact